Temp
18 18 18 17 17 17 16 16 16 15 15 15 15 16 17 16 14 13 10 10 10 10 10 10 10 9 9 9 8 8 8 8 8 8 8 8 8 8 8 8 8 9 9
18 18 18 18 17 17 16 16 15 15 15 15 15 14 15 15 13 11 10 8 9 9 9 9 9 9 9 8 8 8 8 8 8 8 7 7 8 8 8 8 8 8 8
17 18 18 17 17 17 16 16 15 15 15 14 14 13 13 13 12 12 11 9 7 7 7 7 8 8 8 8 8 7 7 7 7 7 7 7 7 7 7 7 7 7 8
17 16 17 17 17 16 16 15 15 15 14 14 13 13 12 12 11 11 12 11 9 7 6 6 6 6 6 7 7 7 7 7 7 6 6 6 6 6 7 7 7 7 7
16 15 16 16 16 15 15 14 15 14 14 14 13 12 12 11 11 11 10 11 10 9 6 6 5 4 4 5 5 6 6 6 6 6 6 6 6 6 6 6 6 7 7
15 15 16 16 14 15 15 14 15 15 14 14 13 12 12 11 11 10 10 10 9 9 9 7 6 4 4 3 4 4 5 5 5 5 5 5 5 5 6 6 6 6 6
14 14 16 15 13 15 14 14 14 14 14 13 12 10 10 10 10 10 10 10 9 8 7 8 8 7 4 3 2 3 3 4 4 5 5 5 5 5 5 5 6 6 6
13 13 15 14 13 14 14 13 13 13 13 11 12 12 12 10 10 10 11 10 9 8 7 7 6 6 7 5 2 1 1 2 3 4 4 4 4 4 4 5 5 5 5
12 13 14 14 13 14 13 12 12 13 13 11 13 14 13 14 11 10 10 10 9 8 8 7 6 6 5 4 2 1 -0 0 2 3 3 3 3 3 4 4 4 4 4
11 11 12 13 12 13 13 12 12 13 13 11 11 12 12 14 13 11 10 10 9 7 7 7 6 5 5 4 1 -1 -1 -1 0 1 2 2 2 2 3 3 3 3 3
10 10 11 11 11 12 12 11 11 11 11 11 11 11 11 12 14 14 11 10 8 7 6 7 6 5 4 4 2 -1 -2 -2 -1 0 1 1 2 1 1 2 2 2 2
8 9 9 10 10 11 11 10 10 10 11 11 10 10 11 12 13 14 14 11 9 7 5 5 6 5 4 2 0 -1 -2 -2 -2 -1 -0 0 0 0 0 0 1 1 1
8 8 8 9 9 9 10 9 9 9 9 10 10 10 11 12 14 15 13 11 10 5 3 5 5 5 3 3 0 -1 -3 -3 -2 -2 -1 -1 -1 -1 -1 -1 -0 -0 -0
8 7 8 8 7 8 9 8 7 8 8 9 9 9 9 9 11 13 13 12 10 7 4 3 5 4 3 2 0 -1 -2 -3 -3 -3 -2 -2 -2 -2 -2 -2 -2 -1 -1
8 7 7 6 6 7 7 7 6 7 7 7 7 7 7 7 9 11 12 12 12 10 8 4 4 4 3 1 1 1 -2 -3 -4 -4 -3 -3 -3 -3 -3 -3 -3 -3 -2
7 6 5 4 5 5 6 5 5 5 5 5 5 7 6 7 7 9 10 11 12 12 11 6 5 4 4 2 0 0 -2 -2 -2 -4 -4 -4 -4 -4 -4 -4 -4 -4 -4
6 5 4 3 3 3 3 3 4 4 4 4 5 5 5 5 6 7 8 9 9 11 9 6 4 3 3 2 0 1 0 -0 -2 -4 -5 -4 -4 -4 -5 -5 -5 -5 -5
5 3 2 2 1 1 2 3 3 2 3 4 3 4 4 4 5 6 7 8 8 9 6 4 2 3 3 2 1 1 2 1 -2 -3 -4 -5 -4 -4 -5 -5 -5 -6 -6
3 2 2 1 1 2 3 2 1 1 2 2 2 2 3 4 4 5 6 6 6 7 5 4 3 3 2 1 -1 -0 1 1 0 -2 -3 -3 -4 -4 -5 -5 -5 -6 -6
2 2 1 1 1 1 1 1 1 2 1 2 2 2 2 3 3 4 4 4 5 5 5 4 4 3 2 1 1 0 0 2 1 1 -1 -1 -2 -3 -4 -5 -5 -6 -6
2 2 1 1 -0 -0 -0 -0 0 0 2 1 1 1 1 2 2 2 3 3 4 4 4 4 3 3 2 1 2 2 3 1 -1 -0 1 -0 -0 -1 -3 -4 -6 -7 -7
2 1 1 0 0 0 -0 -0 -0 -0 -0 0 0 0 0 0 1 1 1 2 3 3 4 5 4 3 2 1 1 1 2 1 2 -2 -1 -0 -1 -1 -3 -6 -7 -8 -8
0 0 0 -0 -0 -0 -0 -0 -0 0 0 -0 0 -0 -2 -2 -0 0 1 1 2 3 4 5 4 3 -0 0 0 1 2 3 2 -1 -1 0 -1 -2 -3 -5 -7 -8 -8
-1 -1 -0 -0 -0 -1 -1 -1 0 -0 -1 -0 -1 -1 -2 -2 -2 -1 -1 -1 -0 1 2 3 2 1 -1 -1 1 2 2 2 -0 -3 -3 1 -2 -3 -4 -5 -6 -7 -9
-1 -1 -1 -1 -1 -2 -1 -2 -2 -1 -1 -1 -2 -1 -2 -2 -2 -1 -1 -3 -4 -4 -2 -0 -0 -1 -2 -2 -1 -1 1 1 1 -2 -4 -3 -4 -4 -5 -6 -6 -7 -8
-1 -1 -1 -1 -1 -2 -1 -2 -2 -2 -3 -3 -2 -3 -3 -2 -2 -2 -2 -4 -5 -6 -4 -4 -4 -3 -3 -2 -2 -2 -0 1 -0 -2 -4 -4 -4 -5 -4 -6 -7 -7 -7
Height
790 794 798 801 804 807 810 813 815 818 820 823 825 826 827 830 832 834 836 838 839 841 842 842 842 842 841 841 841 841 840 840 839 839 838 837 835 834 832 831 830 829 828
787 791 793 796 799 802 806 809 813 816 819 822 825 827 827 830 833 835 837 839 839 840 842 843 843 843 842 842 842 843 843 842 841 840 839 837 836 834 833 831 830 828 827
782 786 790 793 796 798 802 805 809 813 817 820 822 825 828 830 832 834 837 839 841 840 841 843 844 844 844 844 845 845 844 843 842 841 839 838 836 835 833 832 830 828 826
777 781 785 788 792 795 798 802 806 810 813 818 822 824 827 831 832 834 836 838 841 841 841 843 843 845 846 846 846 846 845 845 843 842 840 839 837 835 833 831 829 827 825
774 777 780 784 787 792 795 797 802 807 810 815 820 824 827 830 833 834 836 837 840 840 841 841 843 844 846 846 846 845 845 844 844 842 841 840 837 835 834 832 830 828 826
763 770 776 779 782 786 790 793 797 803 806 811 816 822 826 829 833 834 835 837 839 840 841 841 843 844 845 845 845 844 845 844 843 843 841 840 837 835 833 831 829 826 823
755 760 766 773 777 781 783 788 792 797 803 808 814 823 827 828 831 834 835 836 838 840 841 842 843 845 845 847 845 844 844 844 843 843 841 839 837 835 833 830 828 825 822
747 752 756 760 767 773 778 783 787 792 798 803 806 812 823 830 830 832 833 835 837 839 840 842 843 844 847 849 847 843 843 843 843 842 841 839 837 834 832 829 826 823 820
738 744 751 755 757 763 769 774 780 783 788 797 798 795 808 807 823 830 831 833 835 837 839 841 842 843 845 847 846 843 841 842 842 841 841 839 836 832 830 827 825 823 822
726 734 741 747 752 757 759 766 773 778 781 787 793 793 792 797 809 823 829 831 833 835 837 840 841 842 844 846 844 841 841 842 842 841 840 837 833 831 831 830 828 825 819
713 721 729 737 742 749 755 758 766 773 776 781 785 787 790 794 803 805 818 826 831 834 837 838 839 842 843 844 844 840 840 841 841 841 840 837 836 835 833 831 828 823 818
707 710 719 725 734 741 746 752 760 767 774 778 783 785 782 785 795 801 805 818 824 831 833 836 839 841 841 841 841 839 838 838 840 840 839 838 836 836 836 833 828 823 818
702 701 707 718 724 731 740 746 752 759 767 771 775 779 781 787 797 795 801 813 817 831 833 833 837 840 838 839 841 840 838 839 839 839 838 836 836 836 835 832 828 821 818
691 696 699 704 714 723 730 738 748 752 759 766 774 777 776 781 796 794 793 803 813 822 830 829 832 839 839 837 839 839 838 838 836 836 837 838 840 836 833 831 825 824 823
681 688 690 695 702 711 719 730 739 742 755 763 766 771 778 789 800 796 790 796 801 805 820 826 828 835 839 836 838 840 840 838 837 836 838 839 839 837 832 830 826 827 823
674 680 684 690 698 709 711 724 737 746 752 759 762 767 778 790 794 792 789 794 799 796 803 820 825 829 834 835 837 838 839 838 837 837 839 840 838 835 831 831 828 826 825
665 674 679 688 696 709 710 718 733 743 744 757 765 761 778 789 790 791 788 791 794 796 801 816 824 827 830 831 836 838 839 839 837 839 840 840 839 835 832 832 830 828 826
660 668 675 683 692 703 708 715 728 739 737 746 758 759 778 790 788 790 790 788 793 795 798 811 819 825 827 829 832 836 839 840 838 840 840 839 837 835 832 830 833 832 826
656 665 672 679 685 696 709 707 718 731 734 745 756 760 774 783 787 789 793 783 789 792 799 806 816 821 824 828 831 834 837 837 838 839 838 837 838 837 833 833 833 835 828
656 662 669 676 683 692 704 711 720 720 731 749 755 764 771 780 784 790 786 782 787 791 798 805 814 819 822 825 829 832 836 836 837 839 840 840 839 837 834 838 836 835 829
655 661 668 676 683 691 701 709 714 722 733 746 755 761 769 777 781 785 784 782 787 791 796 803 810 816 819 824 826 829 831 834 836 837 838 838 839 839 839 840 839 836 831
659 663 671 676 684 692 698 707 717 728 738 745 754 762 768 773 776 782 781 782 786 790 795 800 805 810 816 821 822 826 828 830 832 835 834 835 835 838 837 843 841 837 833
661 665 671 679 686 693 702 707 718 731 737 745 753 755 764 771 777 778 780 785 786 789 794 799 800 806 813 818 821 824 825 826 827 832 834 834 834 836 839 842 840 837 834
661 665 675 680 687 696 703 714 720 731 738 748 751 755 760 767 770 773 779 786 787 789 792 793 796 804 808 815 817 821 823 825 827 829 829 831 837 835 839 841 840 837 834
665 675 679 681 691 703 706 711 722 734 743 746 751 757 762 764 767 773 777 782 787 790 792 795 798 801 805 809 813 818 821 823 827 828 827 827 834 836 838 840 840 836 833
668 674 681 692 698 705 711 718 724 733 744 751 755 761 763 763 768 772 777 781 785 791 793 796 800 804 806 809 814 816 818 820 821 825 827 827 831 835 835 836 837 836 835
Wind_Speed
24 24 21 21 19 18 17 16 14 13 12 12 12 13 12 13 14 13 13 17 14 13 13 13 14 15 16 16 16 17 17 17 16 16 16 16 16 17 17 18 18 19 19
24 24 23 22 21 19 18 17 16 16 14 14 14 13 14 14 14 14 15 14 16 15 14 14 15 15 16 16 16 16 15 15 15 16 16 17 17 18 18 19 19 20 20
25 24 23 22 21 21 20 19 19 18 16 16 16 15 14 14 15 15 14 12 13 16 15 15 15 15 16 16 15 15 15 16 16 16 17 17 18 18 18 19 20 20 21
25 26 24 24 22 22 21 20 21 20 19 18 17 16 14 13 14 14 13 12 10 11 14 15 15 15 14 14 15 15 16 16 16 16 16 17 18 19 19 20 20 21 22
28 27 25 24 25 22 23 22 22 21 20 19 17 15 14 13 12 12 12 12 11 10 11 12 10 14 15 14 14 15 15 16 16 17 17 17 18 19 20 20 20 21 22
34 31 26 25 27 24 24 24 24 22 22 21 19 16 13 12 11 12 13 11 11 10 9 8 8 8 9 13 14 14 14 15 16 16 16 17 18 19 19 20 22 23 24
37 35 29 28 28 26 26 26 25 25 23 23 22 16 11 10 11 11 11 12 12 10 9 9 7 6 8 12 15 15 15 15 16 16 17 18 19 20 20 20 22 23 25
42 38 34 33 32 28 28 29 28 27 25 29 20 19 7 8 10 11 12 12 12 10 9 8 8 8 6 5 9 15 15 16 17 17 18 19 19 20 21 22 23 25 26
44 42 37 32 35 31 32 32 32 31 29 31 26 9 5 5 16 12 13 13 13 11 9 8 8 8 7 7 7 11 15 15 16 17 17 18 20 22 23 24 24 24 24
45 44 43 35 35 31 32 34 32 32 29 30 21 14 8 10 6 7 16 15 14 11 9 8 8 8 7 7 9 13 13 15 16 17 18 20 22 23 23 23 23 23 25
48 44 42 38 37 35 32 34 31 30 27 29 24 19 11 8 12 8 10 18 15 11 10 8 8 7 8 8 6 11 13 14 15 17 19 21 22 21 22 23 24 25 27
40 44 44 42 40 39 36 36 32 31 26 25 22 20 18 11 8 12 9 18 18 13 11 9 8 8 8 7 7 10 13 14 15 17 18 19 21 22 23 24 26 26 28
36 41 43 40 40 37 36 39 37 33 29 24 26 23 13 12 11 14 18 17 14 12 6 9 8 9 9 8 6 8 13 14 14 16 17 19 19 19 20 22 25 28 29
39 39 42 42 40 45 43 39 37 33 30 26 20 17 18 13 15 17 19 20 12 10 12 11 11 9 8 9 11 10 10 11 13 15 17 18 17 19 21 22 26 27 27
36 40 44 44 44 49 46 41 36 32 27 26 24 18 14 14 18 15 19 23 17 9 9 13 10 12 10 10 9 9 8 11 13 14 15 16 15 19 22 24 24 25 26
34 36 38 39 39 42 45 36 34 32 29 25 27 24 21 21 20 16 17 19 15 13 6 18 12 16 13 11 12 10 8 8 11 13 13 15 15 19 22 23 23 24 26
36 38 37 36 36 35 37 34 30 30 32 22 19 25 20 18 17 15 18 17 12 12 15 17 16 15 15 13 10 9 7 4 7 11 11 13 15 18 21 23 24 24 24
37 39 38 38 38 36 35 40 36 31 34 32 26 24 18 17 17 16 17 18 16 11 27 21 18 17 15 14 12 10 8 7 6 8 10 11 14 16 19 22 23 23 25
37 39 41 42 44 44 39 43 39 36 31 27 25 24 22 18 18 18 20 19 19 20 23 22 19 18 15 13 11 9 8 7 5 3 7 10 10 14 18 19 22 22 24
37 38 40 42 46 46 44 42 42 36 32 29 28 28 26 23 20 20 21 24 21 22 22 20 19 18 16 15 12 11 9 8 6 5 2 5 6 10 15 15 18 19 22
38 40 39 38 40 42 40 39 34 35 35 31 25 26 26 22 21 19 19 23 22 20 21 20 17 17 15 15 14 11 10 10 5 3 3 3 3 4 8 11 13 16 18
28 30 31 35 36 33 37 38 34 29 30 27 25 23 18 22 24 24 21 22 20 21 19 19 16 17 16 16 12 12 11 10 9 3 6 4 2 3 5 7 11 13 15
25 28 30 32 29 28 38 37 32 24 24 25 24 23 20 19 27 22 23 22 19 19 17 16 18 17 16 15 13 12 9 8 6 8 4 6 3 3 3 3 12 11 14
29 29 32 32 32 33 33 31 28 29 27 25 26 25 24 26 23 22 22 16 16 16 17 15 21 17 15 15 12 8 10 8 9 6 2 2 2 2 2 4 10 14 12
31 30 30 31 31 34 34 35 28 26 27 25 23 25 26 25 24 22 27 24 18 15 14 16 19 18 20 19 13 9 10 11 9 4 2 3 3 1 4 5 5 12 9
27 30 28 26 27 30 28 30 27 26 21 19 21 20 23 26 26 26 26 24 20 16 18 18 16 15 13 14 16 12 9 9 7 5 5 5 4 2 5 7 2 4 6
Wind_Direction
190 191 191 187 188 183 182 180 178 168 162 156 150 147 143 134 135 133 121 123 110 99 93 87 86 83 74 68 62 54 49 46 43 39 34 29 24 17 12 6 2 355 347
192 195 191 191 191 187 183 179 175 167 161 157 150 146 141 143 139 130 128 119 121 111 97 90 85 80 72 66 59 53 47 43 39 34 29 25 19 13 7 3 357 352 345
193 197 195 193 192 186 179 175 170 167 163 159 153 148 145 144 142 140 135 129 120 106 100 93 87 80 73 66 59 51 46 42 36 31 27 22 18 14 9 3 357 352 347
198 194 195 195 189 183 179 176 173 171 164 162 156 151 148 147 146 147 147 140 129 115 110 105 92 82 73 65 57 48 42 38 32 29 24 21 18 13 8 2 357 351 347
198 195 195 193 183 183 181 176 175 175 166 163 157 151 150 148 151 149 147 145 139 135 120 100 95 89 75 65 57 50 40 37 30 26 22 18 15 12 7 4 359 352 349
194 194 199 191 182 184 182 179 176 177 170 164 155 148 150 149 155 151 147 144 142 137 135 139 110 86 66 68 58 53 44 39 34 28 25 20 18 14 8 3 360 356 351
192 192 195 189 186 188 184 180 175 171 169 163 145 133 130 146 162 162 159 154 148 141 136 133 135 130 90 72 58 54 48 41 35 31 27 23 20 15 10 5 360 356 353
195 194 195 188 188 188 183 179 177 171 170 166 161 145 155 164 175 178 172 167 158 150 139 129 119 112 115 78 61 54 48 42 36 32 27 24 21 17 13 8 3 359 354
197 196 196 194 187 189 183 179 181 177 172 179 174 159 148 184 156 183 181 176 166 159 147 136 121 114 116 100 71 47 46 46 42 37 31 26 24 21 16 12 8 2 356
196 197 196 195 188 190 183 182 184 185 177 182 192 215 144 108 182 168 189 178 173 158 158 152 137 123 125 107 70 62 49 45 41 39 33 31 28 24 17 12 6 3 2
197 194 192 192 186 188 187 181 184 187 185 184 191 176 162 141 213 158 169 177 171 161 161 151 143 141 127 118 91 60 56 53 46 40 37 34 30 23 19 14 10 7 6
195 193 193 191 190 188 186 180 182 182 185 189 188 185 156 147 182 177 162 174 165 171 160 154 157 154 138 116 105 75 65 62 56 47 43 38 32 25 19 15 13 12 10
201 195 188 190 185 185 183 182 180 182 184 185 181 175 165 186 232 207 156 165 159 157 165 165 167 162 149 131 119 92 67 64 64 54 49 44 34 26 21 18 16 16 13
200 194 188 185 182 185 184 183 180 176 177 173 168 165 156 155 238 204 168 169 154 154 173 162 171 177 155 135 119 123 77 76 73 62 53 46 32 28 24 23 23 19 13
198 192 186 180 178 184 182 178 175 178 178 181 170 169 159 188 216 208 174 176 170 156 179 179 161 174 167 137 137 135 104 78 69 68 57 48 36 32 30 28 26 21 18
193 186 179 175 173 177 176 169 173 176 177 174 173 168 173 191 195 187 170 182 199 170 144 162 167 163 162 148 142 136 133 67 61 71 64 51 45 40 36 32 29 25 21
183 175 168 165 161 161 158 155 158 160 153 145 149 149 161 182 186 181 169 168 181 184 135 133 150 157 160 150 148 143 127 133 69 77 76 61 49 44 40 34 30 27 23
169 164 159 152 151 150 151 159 156 160 156 153 161 152 174 185 179 179 177 161 164 165 142 151 162 163 161 157 149 147 146 140 116 72 73 72 59 47 43 39 32 27 27
159 158 157 156 155 160 166 164 161 158 149 156 162 158 175 185 188 187 186 146 150 143 148 152 158 163 157 160 155 156 164 156 156 70 52 39 43 49 45 38 35 26 27
159 160 162 161 161 163 165 163 162 155 162 166 166 174 175 190 192 195 169 148 149 142 148 151 155 157 162 167 171 167 176 171 161 171 105 54 60 52 37 36 30 26 26
167 166 163 162 159 160 163 159 156 160 167 171 172 174 183 191 187 187 169 154 152 151 153 155 161 166 163 174 184 180 172 164 151 151 166 66 71 18 19 10 18 19 24
167 162 160 155 156 160 161 157 155 157 162 160 164 170 173 183 183 178 169 156 160 157 163 165 166 170 170 175 167 173 164 176 166 178 163 138 74 37 23 9 14 16 19
147 144 147 149 146 151 163 158 154 158 158 164 170 161 167 178 182 172 165 164 162 164 166 174 168 167 169 172 169 173 176 181 145 142 166 155 121 75 22 336 354 14 14
136 138 142 142 144 150 156 156 152 162 163 167 166 170 167 176 168 167 161 152 152 162 164 155 154 151 159 166 163 182 177 144 129 120 122 153 87 122 327 321 337 354 9
138 142 143 140 146 151 160 157 162 163 166 163 167 171 177 165 164 155 161 152 148 147 157 162 166 168 164 161 161 162 171 172 172 148 94 97 122 245 243 265 309 337 350
133 142 144 157 159 156 165 164 161 154 149 151 159 166 169 161 161 170 168 155 142 147 148 140 135 137 145 162 171 172 177 202 146 161 209 140 166 212 214 208 250 338 339